| time (UTC) | temp F | wind direction | speed MPH | gust MPH | rain 1hr in | rain 24hr in | rain mn in | humidity % | barometer mb |
| 20260507145507 | 63 | 351 | 0.0 | 6.0 | 0.00 | 0.00 | 0.00 | 84 | 1016.8 |
| 20260507145007 | 63 | 269 | 0.0 | 6.0 | 0.00 | 0.00 | 0.00 | 84 | 1016.7 |
| 20260507144526 | 63 | 267 | 0.0 | 9.0 | 0.00 | 0.00 | 0.00 | 84 | 1016.8 |
| 20260507144011 | 63 | 132 | 1.0 | 9.0 | 0.00 | 0.00 | 0.00 | 84 | 1016.7 |
| 20260507143507 | 63 | 275 | 2.0 | 9.0 | 0.00 | 0.00 | 0.00 | 84 | 1016.4 |
| 20260507143010 | 63 | 272 | 4.0 | 9.0 | 0.00 | 0.00 | 0.00 | 84 | 1016.4 |
| 20260507142508 | 63 | 25 | 0.0 | 11.0 | 0.00 | 0.00 | 0.00 | 84 | 1016.3 |
| 20260507142008 | 63 | 221 | 1.0 | 15.0 | 0.00 | 0.00 | 0.00 | 84 | 1016.1 |
| 20260507141516 | 63 | 294 | 4.0 | 15.0 | 0.00 | 0.00 | 0.00 | 84 | 1015.9 |
| 20260507141012 | 63 | 103 | 2.0 | 12.0 | 0.00 | 0.00 | 0.00 | 84 | 1015.8 |
| 20260507140510 | 63 | 279 | 4.0 | 12.0 | 0.00 | 0.00 | 0.00 | 84 | 1015.7 |
| 20260507140023 | 63 | 157 | 4.0 | 12.0 | 0.00 | 0.00 | 0.00 | 85 | 1015.9 |
| 20260507135511 | 63 | 69 | 2.0 | 7.0 | 0.00 | 0.00 | 0.00 | 85 | 1016.1 |
| 20260507135011 | 63 | 277 | 0.0 | 9.0 | 0.00 | 0.00 | 0.00 | 85 | 1016.3 |
| 20260507134535 | 63 | 280 | 2.0 | 10.0 | 0.00 | 0.00 | 0.00 | 85 | 1016.3 |
| 20260507134007 | 63 | 248 | 2.0 | 10.0 | 0.00 | 0.00 | 0.00 | 86 | 1016.2 |
| 20260507133510 | 63 | 244 | 1.0 | 8.0 | 0.00 | 0.00 | 0.00 | 86 | 1016.4 |
| 20260507133014 | 63 | 284 | 1.0 | 8.0 | 0.00 | 0.00 | 0.00 | 86 | 1016.6 |
| 20260507132512 | 63 | 279 | 1.0 | 5.0 | 0.00 | 0.00 | 0.00 | 86 | 1016.6 |
| 20260507132014 | 63 | 248 | 0.0 | 5.0 | 0.00 | 0.00 | 0.00 | 86 | 1016.7 |
| 20260507131527 | 63 | 242 | 0.0 | 8.0 | 0.00 | 0.00 | 0.00 | 86 | 1016.8 |
| 20260507131009 | 63 | 273 | 1.0 | 8.0 | 0.00 | 0.00 | 0.00 | 85 | 1016.5 |
| 20260507130508 | 63 | 280 | 2.0 | 8.0 | 0.00 | 0.00 | 0.00 | 85 | 1016.3 |
| 20260507130026 | 64 | 286 | 2.0 | 6.0 | 0.00 | 0.00 | 0.00 | 85 | 1016.7 |
| 20260507125513 | 64 | 249 | 0.0 | 5.0 | 0.00 | 0.00 | 0.00 | 85 | 1016.7 |
| 20260507125014 | 64 | 273 | 0.0 | 3.0 | 0.00 | 0.00 | 0.00 | 85 | 1016.5 |
| 20260507124527 | 64 | 273 | 0.0 | 8.0 | 0.00 | 0.00 | 0.00 | 84 | 1016.4 |
| 20260507124010 | 64 | 273 | 1.0 | 8.0 | 0.00 | 0.00 | 0.00 | 84 | 1016.5 |
| 20260507123506 | 64 | 5 | 0.0 | 8.0 | 0.00 | 0.00 | 0.00 | 84 | 1016.3 |
| 20260507123020 | 64 | 211 | 0.0 | 8.0 | 0.00 | 0.00 | 0.00 | 84 | 1016.1 |
| 20260507122511 | 64 | 282 | 1.0 | 4.0 | 0.00 | 0.00 | 0.00 | 84 | 1016.1 |
| 20260507122012 | 64 | 282 | 0.0 | 6.0 | 0.00 | 0.00 | 0.00 | 85 | 1015.8 |
| 20260507121522 | 64 | 282 | 0.0 | 6.0 | 0.00 | 0.00 | 0.00 | 84 | 1015.6 |
| 20260507121008 | 64 | 140 | 0.0 | 5.0 | 0.00 | 0.00 | 0.00 | 84 | 1015.7 |
| 20260507120512 | 65 | 113 | 1.0 | 6.0 | 0.00 | 0.00 | 0.00 | 85 | 1015.2 |
| 20260507120023 | 65 | 282 | 1.0 | 6.0 | 0.00 | 0.00 | 0.00 | 85 | 1015.2 |
| 20260507115507 | 65 | 255 | 2.0 | 6.0 | 0.00 | 0.00 | 0.00 | 85 | 1015.3 |
| 20260507115007 | 65 | 205 | 1.0 | 4.0 | 0.00 | 0.00 | 0.00 | 85 | 1014.9 |
| 20260507114530 | 65 | 279 | 0.0 | 7.0 | 0.00 | 0.00 | 0.00 | 86 | 1015.0 |
| 20260507114010 | 65 | 276 | 0.0 | 8.0 | 0.00 | 0.00 | 0.00 | 86 | 1014.9 |
| 20260507113507 | 65 | 281 | 2.0 | 8.0 | 0.00 | 0.00 | 0.00 | 85 | 1015.1 |
| 20260507113020 | 65 | 284 | 0.0 | 5.0 | 0.00 | 0.00 | 0.00 | 86 | 1015.1 |
| 20260507112507 | 65 | 250 | 0.0 | 5.0 | 0.00 | 0.00 | 0.00 | 85 | 1014.9 |
| 20260507112009 | 65 | 250 | 1.0 | 5.0 | 0.00 | 0.00 | 0.00 | 86 | 1014.6 |
| 20260507111524 | 65 | 281 | 1.0 | 4.0 | 0.00 | 0.00 | 0.00 | 86 | 1014.3 |
| 20260507111008 | 65 | 279 | 0.0 | 9.0 | 0.00 | 0.00 | 0.00 | 86 | 1014.5 |
| 20260507110508 | 65 | 279 | 1.0 | 9.0 | 0.00 | 0.00 | 0.00 | 85 | 1014.6 |
| 20260507105507 | 65 | 280 | 0.0 | 7.0 | 0.00 | 0.00 | 0.00 | 85 | 1014.7 |
| 20260507105008 | 65 | 254 | 2.0 | 7.0 | 0.00 | 0.00 | 0.00 | 85 | 1014.4 |
| 20260507104524 | 65 | 253 | 0.0 | 5.0 | 0.00 | 0.00 | 0.00 | 85 | 1014.4 |
| 20260507104009 | 65 | 253 | 0.0 | 7.0 | 0.00 | 0.00 | 0.00 | 85 | 1014.2 |
| 20260507103507 | 66 | 282 | 0.0 | 7.0 | 0.00 | 0.00 | 0.00 | 85 | 1014.3 |
| 20260507103029 | 66 | 282 | 1.0 | 7.0 | 0.00 | 0.00 | 0.00 | 85 | 1014.1 |
| 20260507102510 | 66 | 98 | 0.0 | 3.0 | 0.00 | 0.00 | 0.00 | 85 | 1014.2 |
| 20260507102006 | 66 | 134 | 1.0 | 4.0 | 0.00 | 0.00 | 0.00 | 85 | 1014.2 |
| 20260507101516 | 66 | 186 | 0.0 | 4.0 | 0.00 | 0.00 | 0.00 | 85 | 1014.1 |
| 20260507101004 | 66 | 149 | 1.0 | 4.0 | 0.00 | 0.00 | 0.00 | 85 | 1013.9 |
| 20260507100504 | 66 | 286 | 0.0 | 3.0 | 0.00 | 0.00 | 0.00 | 85 | 1013.8 |
| 20260507100013 | 66 | 111 | 0.0 | 3.0 | 0.00 | 0.00 | 0.00 | 85 | 1013.9 |
| 20260507095507 | 66 | 192 | 0.0 | 3.0 | 0.00 | 0.00 | 0.00 | 85 | 1013.9 |
| 20260507095008 | 66 | 119 | 1.0 | 6.0 | 0.00 | 0.00 | 0.00 | 85 | 1013.8 |
| 20260507094520 | 66 | 276 | 0.0 | 6.0 | 0.00 | 0.00 | 0.00 | 85 | 1013.6 |
| 20260507094007 | 66 | 281 | 0.0 | 3.0 | 0.00 | 0.00 | 0.00 | 85 | 1013.8 |
| 20260507093507 | 66 | 279 | 0.0 | 8.0 | 0.00 | 0.00 | 0.00 | 85 | 1013.9 |
| 20260507093025 | 65 | 279 | 0.0 | 8.0 | 0.00 | 0.00 | 0.00 | 85 | 1013.7 |
| 20260507092503 | 66 | 281 | 1.0 | 8.0 | 0.00 | 0.00 | 0.00 | 85 | 1013.1 |
| 20260507092003 | 65 | 273 | 0.0 | 6.0 | 0.00 | 0.00 | 0.00 | 85 | 1013.1 |
| 20260507091508 | 65 | 91 | 1.0 | 3.0 | 0.00 | 0.00 | 0.00 | 85 | 1013.3 |
| 20260507091004 | 65 | 111 | 0.0 | 3.0 | 0.00 | 0.00 | 0.00 | 85 | 1013.4 |
| 20260507090507 | 65 | 296 | 0.0 | 2.0 | 0.00 | 0.00 | 0.00 | 85 | 1013.4 |
| 20260507090020 | 65 | 276 | 0.0 | 3.0 | 0.00 | 0.00 | 0.00 | 85 | 1013.7 |
| 20260507085508 | 65 | 276 | 0.0 | 3.0 | 0.00 | 0.00 | 0.00 | 85 | 1013.3 |
| 20260507085008 | 65 | 276 | 0.0 | 8.0 | 0.00 | 0.00 | 0.00 | 85 | 1013.7 |
| 20260507084533 | 65 | 276 | 1.0 | 8.0 | 0.00 | 0.00 | 0.00 | 85 | 1013.3 |
| 20260507084008 | 65 | 285 | 1.0 | 7.0 | 0.00 | 0.00 | 0.00 | 84 | 1013.3 |
| 20260507083508 | 65 | 282 | 2.0 | 7.0 | 0.00 | 0.00 | 0.00 | 84 | 1013.6 |
| 20260507083026 | 65 | 279 | 0.0 | 4.0 | 0.00 | 0.00 | 0.00 | 84 | 1013.8 |
| 20260507082504 | 65 | 279 | 1.0 | 4.0 | 0.00 | 0.00 | 0.00 | 84 | 1013.6 |
| 20260507082003 | 65 | 97 | 1.0 | 7.0 | 0.00 | 0.00 | 0.00 | 84 | 1013.5 |
| 20260507081512 | 65 | 286 | 1.0 | 7.0 | 0.00 | 0.00 | 0.00 | 84 | 1013.4 |
| 20260507081006 | 65 | 268 | 0.0 | 8.0 | 0.00 | 0.00 | 0.00 | 84 | 1013.6 |
| 20260507080510 | 66 | 278 | 1.0 | 8.0 | 0.00 | 0.00 | 0.00 | 84 | 1013.7 |
| 20260507080016 | 66 | 286 | 1.0 | 8.0 | 0.00 | 0.00 | 0.00 | 84 | 1013.6 |
| 20260507075508 | 66 | 281 | 0.0 | 7.0 | 0.00 | 0.00 | 0.00 | 84 | 1013.5 |
| 20260507075010 | 66 | 282 | 1.0 | 7.0 | 0.00 | 0.00 | 0.00 | 83 | 1013.6 |
| 20260507074535 | 66 | 274 | 1.0 | 4.0 | 0.00 | 0.00 | 0.00 | 83 | 1013.6 |
| 20260507074008 | 66 | 277 | 0.0 | 6.0 | 0.00 | 0.00 | 0.00 | 83 | 1013.4 |
| 20260507073510 | 66 | 277 | 1.0 | 6.0 | 0.00 | 0.00 | 0.00 | 83 | 1013.7 |
| 20260507073025 | 66 | 257 | 1.0 | 6.0 | 0.00 | 0.00 | 0.00 | 83 | 1013.9 |
| 20260507072507 | 66 | 212 | 1.0 | 5.0 | 0.00 | 0.00 | 0.00 | 83 | 1013.8 |
| 20260507072006 | 66 | 279 | 0.0 | 6.0 | 0.00 | 0.00 | 0.00 | 83 | 1013.9 |
| 20260507071511 | 66 | 281 | 1.0 | 8.0 | 0.00 | 0.00 | 0.00 | 82 | 1013.9 |
| 20260507071005 | 66 | 251 | 0.0 | 8.0 | 0.00 | 0.00 | 0.00 | 82 | 1013.9 |
| 20260507070507 | 66 | 165 | 0.0 | 7.0 | 0.00 | 0.00 | 0.00 | 82 | 1013.9 |
| 20260507070020 | 66 | 211 | 1.0 | 7.0 | 0.00 | 0.00 | 0.00 | 82 | 1014.2 |
| 20260507065508 | 66 | 280 | 2.0 | 7.0 | 0.00 | 0.00 | 0.00 | 82 | 1014.2 |
| 20260507065010 | 66 | 255 | 0.0 | 4.0 | 0.00 | 0.00 | 0.00 | 82 | 1014.1 |
| 20260507064525 | 66 | 255 | 0.0 | 4.0 | 0.00 | 0.00 | 0.00 | 82 | 1013.9 |
| 20260507064010 | 66 | 281 | 1.0 | 7.0 | 0.00 | 0.00 | 0.00 | 82 | 1013.9 |
| 20260507063514 | 66 | 282 | 2.0 | 7.0 | 0.00 | 0.00 | 0.00 | 82 | 1014.1 |
| 20260507063010 | 66 | 271 | 2.0 | 6.0 | 0.00 | 0.00 | 0.00 | 82 | 1014.2 |
| 20260507062504 | 66 | 279 | 1.0 | 6.0 | 0.00 | 0.00 | 0.00 | 82 | 1014.0 |
| 20260507062008 | 66 | 279 | 0.0 | 4.0 | 0.00 | 0.00 | 0.00 | 82 | 1013.7 |
| 20260507061515 | 66 | 279 | 1.0 | 8.0 | 0.00 | 0.00 | 0.00 | 81 | 1014.1 |
| 20260507061009 | 67 | 279 | 1.0 | 8.0 | 0.00 | 0.00 | 0.00 | 81 | 1014.1 |
| 20260507060508 | 67 | 243 | 0.0 | 7.0 | 0.00 | 0.00 | 0.00 | 81 | 1013.9 |
| 20260507060019 | 67 | 205 | 1.0 | 7.0 | 0.00 | 0.00 | 0.00 | 81 | 1013.7 |
| 20260507055511 | 67 | 274 | 1.0 | 8.0 | 0.00 | 0.00 | 0.00 | 81 | 1013.6 |
| 20260507055009 | 67 | 278 | 2.0 | 8.0 | 0.00 | 0.00 | 0.00 | 81 | 1013.7 |
| 20260507054523 | 67 | 273 | 2.0 | 8.0 | 0.00 | 0.00 | 0.00 | 81 | 1013.6 |
| 20260507054013 | 67 | 278 | 0.0 | 8.0 | 0.00 | 0.00 | 0.00 | 81 | 1013.6 |
| 20260507053510 | 67 | 284 | 1.0 | 8.0 | 0.00 | 0.00 | 0.00 | 81 | 1013.6 |
| 20260507053013 | 67 | 283 | 0.0 | 9.0 | 0.00 | 0.00 | 0.00 | 81 | 1013.6 |
| 20260507052508 | 67 | 283 | 1.0 | 9.0 | 0.00 | 0.00 | 0.00 | 81 | 1013.6 |
| 20260507052007 | 68 | 255 | 1.0 | 6.0 | 0.00 | 0.00 | 0.00 | 81 | 1013.4 |
| 20260507051529 | 68 | 272 | 1.0 | 6.0 | 0.00 | 0.00 | 0.00 | 81 | 1013.5 |
| 20260507051007 | 68 | 286 | 1.0 | 6.0 | 0.00 | 0.00 | 0.00 | 81 | 1013.5 |
| 20260507050024 | 68 | 281 | 1.0 | 6.0 | 0.00 | 0.00 | 0.00 | 81 | 1013.4 |
| 20260507045510 | 68 | 281 | 0.0 | 6.0 | 0.00 | 0.00 | 0.00 | 81 | 1013.5 |
| 20260507045010 | 68 | 270 | 1.0 | 6.0 | 0.00 | 0.00 | 0.00 | 81 | 1013.6 |
| 20260507044527 | 68 | 247 | 0.0 | 6.0 | 0.00 | 0.00 | 0.00 | 81 | 1013.5 |
| 20260507044009 | 68 | 285 | 0.0 | 8.0 | 0.00 | 0.00 | 0.00 | 81 | 1013.4 |
| 20260507043510 | 68 | 275 | 0.0 | 9.0 | 0.00 | 0.00 | 0.00 | 81 | 1013.4 |
| 20260507043013 | 68 | 273 | 2.0 | 9.0 | 0.00 | 0.00 | 0.00 | 81 | 1013.5 |
| 20260507042506 | 69 | 271 | 0.0 | 3.0 | 0.00 | 0.00 | 0.00 | 81 | 1013.5 |
| 20260507040507 | 69 | 251 | 1.0 | 7.0 | 0.00 | 0.00 | 0.00 | 81 | 1013.3 |
| 20260507035510 | 69 | 269 | 0.0 | 7.0 | 0.00 | 0.00 | 0.00 | 80 | 1013.2 |
| 20260507035015 | 69 | 202 | 1.0 | 7.0 | 0.00 | 0.00 | 0.00 | 81 | 1013.4 |
| 20260507034546 | 69 | 282 | 0.0 | 9.0 | 0.00 | 0.00 | 0.00 | 80 | 1013.3 |
| 20260507034009 | 69 | 276 | 1.0 | 9.0 | 0.00 | 0.00 | 0.00 | 80 | 1013.5 |
| 20260507033509 | 70 | 252 | 2.0 | 8.0 | 0.00 | 0.00 | 0.00 | 80 | 1013.4 |
| 20260507033011 | 70 | 277 | 1.0 | 7.0 | 0.00 | 0.00 | 0.00 | 80 | 1013.4 |
| 20260507032505 | 70 | 277 | 0.0 | 4.0 | 0.00 | 0.00 | 0.00 | 80 | 1013.1 |
| 20260507032010 | 70 | 250 | 0.0 | 8.0 | 0.00 | 0.00 | 0.00 | 80 | 1013.0 |
| 20260507031519 | 70 | 275 | 3.0 | 8.0 | 0.00 | 0.00 | 0.00 | 80 | 1013.0 |
| 20260507031010 | 71 | 269 | 1.0 | 8.0 | 0.00 | 0.00 | 0.00 | 79 | 1013.0 |
| 20260507030511 | 71 | 253 | 0.0 | 9.0 | 0.00 | 0.00 | 0.00 | 80 | 1012.8 |
| 20260507030024 | 71 | 283 | 3.0 | 9.0 | 0.00 | 0.00 | 0.00 | 79 | 1012.8 |
| 20260507025510 | 71 | 277 | 0.0 | 6.0 | 0.00 | 0.00 | 0.00 | 79 | 1012.7 |
| 20260507024545 | 71 | 269 | 1.0 | 6.0 | 0.00 | 0.00 | 0.00 | 79 | 1012.4 |
| 20260507024010 | 71 | 281 | 0.0 | 6.0 | 0.00 | 0.00 | 0.00 | 79 | 1012.3 |
| 20260507023508 | 71 | 246 | 1.0 | 8.0 | 0.00 | 0.00 | 0.00 | 79 | 1012.3 |
| 20260507023014 | 71 | 279 | 2.0 | 9.0 | 0.00 | 0.00 | 0.00 | 79 | 1012.2 |
| 20260507022508 | 71 | 244 | 1.0 | 9.0 | 0.00 | 0.00 | 0.00 | 79 | 1012.1 |
| 20260507022010 | 72 | 281 | 1.0 | 8.0 | 0.00 | 0.00 | 0.00 | 79 | 1012.0 |
| 20260507021523 | 72 | 189 | 1.0 | 6.0 | 0.00 | 0.00 | 0.00 | 79 | 1011.8 |
| 20260507021007 | 72 | 244 | 0.0 | 4.0 | 0.00 | 0.00 | 0.00 | 79 | 1011.6 |
| 20260507020510 | 72 | 243 | 0.0 | 6.0 | 0.00 | 0.00 | 0.00 | 79 | 1011.7 |
| 20260507020027 | 72 | 219 | 1.0 | 6.0 | 0.00 | 0.00 | 0.00 | 79 | 1011.6 |
| 20260507015511 | 72 | 272 | 2.0 | 4.0 | 0.00 | 0.00 | 0.00 | 79 | 1011.4 |
| 20260507015012 | 72 | 257 | 0.0 | 7.0 | 0.00 | 0.00 | 0.00 | 80 | 1011.4 |
| 20260507014536 | 73 | 257 | 1.0 | 7.0 | 0.00 | 0.00 | 0.00 | 80 | 1011.4 |
| 20260507014010 | 73 | 248 | 0.0 | 6.0 | 0.00 | 0.00 | 0.00 | 80 | 1011.2 |
| 20260507013507 | 73 | 277 | 0.0 | 6.0 | 0.00 | 0.00 | 0.00 | 79 | 1011.0 |
| 20260507013019 | 73 | 266 | 0.0 | 4.0 | 0.00 | 0.00 | 0.00 | 80 | 1010.9 |
| 20260507012010 | 73 | 254 | 1.0 | 9.0 | 0.00 | 0.00 | 0.00 | 80 | 1010.7 |
| 20260507011536 | 73 | 277 | 1.0 | 9.0 | 0.00 | 0.00 | 0.00 | 80 | 1010.7 |
| 20260507011011 | 73 | 271 | 1.0 | 10.0 | 0.00 | 0.00 | 0.00 | 80 | 1010.4 |
| 20260507010509 | 73 | 254 | 3.0 | 10.0 | 0.00 | 0.00 | 0.00 | 80 | 1010.3 |
| 20260507010029 | 74 | 281 | 1.0 | 9.0 | 0.00 | 0.00 | 0.00 | 80 | 1010.2 |
| 20260507005510 | 74 | 281 | 3.0 | 9.0 | 0.00 | 0.00 | 0.00 | 80 | 1010.1 |
| 20260507005008 | 74 | 248 | 1.0 | 8.0 | 0.00 | 0.00 | 0.00 | 80 | 1010.0 |
| 20260507004526 | 74 | 283 | 1.0 | 7.0 | 0.00 | 0.00 | 0.00 | 80 | 1010.0 |
| 20260507004007 | 74 | 246 | 2.0 | 9.0 | 0.00 | 0.00 | 0.00 | 80 | 1009.7 |
| 20260507002507 | 75 | 281 | 1.0 | 7.0 | 0.00 | 0.00 | 0.00 | 80 | 1009.6 |
| 20260507001011 | 76 | 279 | 6.0 | 11.0 | 0.00 | 0.00 | 0.00 | 81 | 1009.4 |
| 20260507000507 | 77 | 281 | 5.0 | 14.0 | 0.00 | 0.00 | 0.00 | 80 | 1009.3 |
| 20260507000012 | 77 | 247 | 6.0 | 14.0 | 0.00 | 0.00 | 0.00 | 80 | 1009.2 |
| 20260506235504 | 79 | 279 | 4.0 | 13.0 | 0.00 | 0.00 | 0.00 | 79 | 1009.1 |
| 20260506232514 | 84 | 278 | 1.0 | 4.0 | 0.00 | 0.00 | 0.00 | 79 | 1008.8 |
| 20260506230503 | 84 | 277 | 2.0 | 4.0 | 0.00 | 0.00 | 0.00 | 78 | 1008.7 |
| 20260506230015 | 84 | 278 | 1.0 | 4.0 | 0.00 | 0.00 | 0.00 | 79 | 1008.7 |
| 20260506225507 | 84 | 277 | 1.0 | 4.0 | 0.00 | 0.00 | 0.00 | 79 | 1008.8 |
| 20260506225008 | 84 | 277 | 1.0 | 4.0 | 0.00 | 0.00 | 0.00 | 79 | 1008.7 |
| 20260506224012 | 84 | 285 | 1.0 | 3.0 | 0.00 | 0.00 | 0.00 | 78 | 1008.7 |
| 20260506223507 | 84 | 285 | 1.0 | 3.0 | 0.00 | 0.00 | 0.00 | 79 | 1008.6 |
| 20260506223021 | 84 | 285 | 1.0 | 3.0 | 0.00 | 0.00 | 0.00 | 78 | 1008.7 |
| 20260506222509 | 84 | 273 | 1.0 | 6.0 | 0.00 | 0.00 | 0.00 | 78 | 1008.7 |
| 20260506222009 | 84 | 273 | 2.0 | 6.0 | 0.00 | 0.00 | 0.00 | 78 | 1008.6 |
| 20260506221525 | 85 | 272 | 0.0 | 3.0 | 0.00 | 0.00 | 0.00 | 78 | 1008.6 |
| 20260506221010 | 85 | 272 | 0.0 | 3.0 | 0.00 | 0.00 | 0.00 | 78 | 1008.6 |
| 20260506220507 | 84 | 272 | 0.0 | 2.0 | 0.00 | 0.00 | 0.00 | 78 | 1008.5 |
| 20260506220015 | 84 | 272 | 0.0 | 2.0 | 0.00 | 0.00 | 0.00 | 78 | 1008.6 |
| 20260506215506 | 85 | 272 | 0.0 | 2.0 | 0.00 | 0.00 | 0.00 | 78 | 1008.5 |
| 20260506215007 | 85 | 272 | 0.0 | 2.0 | 0.00 | 0.00 | 0.00 | 76 | 1008.6 |
| 20260506214520 | 85 | 272 | 0.0 | 2.0 | 0.00 | 0.00 | 0.00 | 77 | 1008.6 |
| 20260506214012 | 85 | 272 | 0.0 | 2.0 | 0.00 | 0.00 | 0.00 | 78 | 1008.6 |
| 20260506213512 | 85 | 272 | 0.0 | 2.0 | 0.00 | 0.00 | 0.00 | 80 | 1008.6 |
| 20260506213025 | 84 | 272 | 0.0 | 2.0 | 0.00 | 0.00 | 0.00 | 80 | 1008.7 |
| 20260506212507 | 83 | 272 | 0.0 | 0.0 | 0.00 | 0.00 | 0.00 | 80 | 1008.7 |
| 20260506212007 | 83 | 272 | 0.0 | 1.0 | 0.00 | 0.00 | 0.00 | 81 | 1008.7 |
| 20260506211525 | 83 | 272 | 0.0 | 1.0 | 0.00 | 0.00 | 0.00 | 80 | 1008.7 |
| 20260506211007 | 83 | 272 | 0.0 | 1.0 | 0.00 | 0.00 | 0.00 | 80 | 1008.7 |
| 20260506210510 | 83 | 272 | 0.0 | 2.0 | 0.00 | 0.00 | 0.00 | 80 | 1008.7 |
| 20260506210017 | 83 | 272 | 0.0 | 2.0 | 0.00 | 0.00 | 0.00 | 80 | 1008.7 |
| 20260506205506 | 84 | 272 | 0.0 | 3.0 | 0.00 | 0.00 | 0.00 | 81 | 1008.7 |
| 20260506205011 | 83 | 272 | 0.0 | 3.0 | 0.00 | 0.00 | 0.00 | 78 | 1008.7 |
| 20260506204526 | 83 | 272 | 0.0 | 6.0 | 0.00 | 0.00 | 0.00 | 79 | 1008.7 |
| 20260506204010 | 83 | 272 | 0.0 | 6.0 | 0.00 | 0.00 | 0.00 | 79 | 1008.8 |
| 20260506203510 | 83 | 271 | 1.0 | 6.0 | 0.00 | 0.00 | 0.00 | 79 | 1009.0 |
| 20260506203028 | 84 | 271 | 0.0 | 3.0 | 0.00 | 0.00 | 0.00 | 77 | 1009.0 |
| 20260506202510 | 84 | 272 | 0.0 | 1.0 | 0.00 | 0.00 | 0.00 | 78 | 1009.1 |
| 20260506202010 | 84 | 272 | 0.0 | 2.0 | 0.00 | 0.00 | 0.00 | 79 | 1009.2 |
| 20260506201515 | 83 | 272 | 0.0 | 4.0 | 0.00 | 0.00 | 0.00 | 78 | 1009.2 |
| 20260506201006 | 83 | 272 | 0.0 | 4.0 | 0.00 | 0.00 | 0.00 | 77 | 1009.2 |
| 20260506200509 | 84 | 253 | 0.0 | 1.0 | 0.00 | 0.00 | 0.00 | 76 | 1009.2 |
| 20260506200018 | 84 | 253 | 0.0 | 2.0 | 0.00 | 0.00 | 0.00 | 76 | 1009.2 |
| 20260506195502 | 84 | 253 | 0.0 | 2.0 | 0.00 | 0.00 | 0.00 | 77 | 1009.3 |
| 20260506195002 | 84 | 77 | 0.0 | 4.0 | 0.00 | 0.00 | 0.00 | 76 | 1009.3 |
| 20260506194004 | 83 | 56 | 1.0 | 4.0 | 0.00 | 0.00 | 0.00 | 77 | 1009.4 |
| 20260506193502 | 83 | 77 | 1.0 | 2.0 | 0.00 | 0.00 | 0.00 | 77 | 1009.2 |
| 20260506193008 | 84 | 67 | 0.0 | 5.0 | 0.00 | 0.00 | 0.00 | 77 | 1009.3 |
| 20260506192506 | 84 | 94 | 2.0 | 5.0 | 0.00 | 0.00 | 0.00 | 77 | 1009.4 |
| 20260506192006 | 84 | 75 | 0.0 | 4.0 | 0.00 | 0.00 | 0.00 | 76 | 1009.4 |
| 20260506191518 | 84 | 82 | 1.0 | 3.0 | 0.00 | 0.00 | 0.00 | 76 | 1009.5 |
| 20260506190022 | 83 | 80 | 1.0 | 4.0 | 0.00 | 0.00 | 0.00 | 80 | 1009.7 |
| 20260506185503 | 83 | 254 | 1.0 | 3.0 | 0.00 | 0.00 | 0.00 | 78 | 1009.8 |
| 20260506183011 | 83 | 254 | 1.0 | 2.0 | 0.00 | 0.00 | 0.00 | 79 | 1010.0 |
| 20260506182010 | 82 | 254 | 0.0 | 4.0 | 0.00 | 0.00 | 0.00 | 80 | 1010.2 |
| 20260506181519 | 82 | 268 | 1.0 | 3.0 | 0.00 | 0.00 | 0.00 | 80 | 1010.3 |
| 20260506180006 | 82 | 268 | 0.0 | 3.0 | 0.00 | 0.00 | 0.00 | 83 | 1010.7 |
| 20260506175504 | 81 | 266 | 0.0 | 3.0 | 0.00 | 0.00 | 0.00 | 83 | 1010.8 |
| 20260506175002 | 81 | 266 | 0.0 | 3.0 | 0.00 | 0.00 | 0.00 | 83 | 1011.0 |
| 20260506174007 | 80 | 74 | 0.0 | 2.0 | 0.00 | 0.00 | 0.00 | 84 | 1011.1 |
| 20260506173504 | 80 | 69 | 0.0 | 2.0 | 0.00 | 0.00 | 0.00 | 84 | 1011.3 |
| 20260506172507 | 80 | 69 | 0.0 | 2.0 | 0.00 | 0.00 | 0.00 | 84 | 1011.3 |
| 20260506172011 | 80 | 76 | 0.0 | 3.0 | 0.00 | 0.00 | 0.00 | 85 | 1011.4 |
| 20260506171521 | 80 | 92 | 1.0 | 4.0 | 0.00 | 0.00 | 0.00 | 85 | 1011.3 |
| 20260506171009 | 80 | 66 | 0.0 | 4.0 | 0.00 | 0.00 | 0.00 | 84 | 1011.4 |
| 20260506170512 | 80 | 85 | 1.0 | 3.0 | 0.00 | 0.00 | 0.00 | 82 | 1011.3 |
| 20260506170009 | 80 | 83 | 1.0 | 3.0 | 0.00 | 0.00 | 0.00 | 82 | 1011.4 |
| 20260506165503 | 80 | 48 | 1.0 | 3.0 | 0.00 | 0.00 | 0.00 | 81 | 1011.4 |
| 20260506165005 | 81 | 284 | 1.0 | 3.0 | 0.00 | 0.00 | 0.00 | 81 | 1011.4 |
| 20260506164512 | 81 | 64 | 1.0 | 4.0 | 0.00 | 0.00 | 0.00 | 80 | 1011.3 |
| 20260506164007 | 81 | 57 | 1.0 | 4.0 | 0.00 | 0.00 | 0.00 | 81 | 1011.3 |
| 20260506163506 | 80 | 76 | 1.0 | 3.0 | 0.00 | 0.00 | 0.00 | 82 | 1011.2 |
| 20260506163014 | 80 | 77 | 1.0 | 3.0 | 0.00 | 0.00 | 0.00 | 83 | 1011.2 |
| 20260506162510 | 80 | 82 | 1.0 | 3.0 | 0.00 | 0.00 | 0.00 | 83 | 1011.3 |
| 20260506162012 | 80 | 78 | 0.0 | 2.0 | 0.00 | 0.00 | 0.00 | 83 | 1011.2 |
| 20260506161523 | 80 | 71 | 0.0 | 3.0 | 0.00 | 0.00 | 0.00 | 82 | 1011.1 |
| 20260506161013 | 80 | 83 | 0.0 | 3.0 | 0.00 | 0.00 | 0.00 | 84 | 1010.9 |
| 20260506160509 | 80 | 88 | 1.0 | 3.0 | 0.00 | 0.00 | 0.00 | 84 | 1010.7 |
| 20260506160007 | 79 | 78 | 0.0 | 2.0 | 0.00 | 0.00 | 0.00 | 84 | 1010.8 |
| 20260506155504 | 80 | 87 | 0.0 | 2.0 | 0.00 | 0.00 | 0.00 | 84 | 1010.9 |
| 20260506155007 | 79 | 74 | 0.0 | 2.0 | 0.00 | 0.00 | 0.00 | 84 | 1010.8 |
| 20260506154514 | 79 | 76 | 0.0 | 2.0 | 0.00 | 0.00 | 0.00 | 84 | 1010.8 |
| 20260506154006 | 79 | 328 | 0.0 | 2.0 | 0.00 | 0.00 | 0.00 | 85 | 1010.8 |
| 20260506153507 | 79 | 68 | 0.0 | 2.0 | 0.00 | 0.00 | 0.00 | 85 | 1010.8 |
| 20260506153020 | 79 | 82 | 0.0 | 2.0 | 0.00 | 0.00 | 0.00 | 85 | 1010.8 |
| 20260506152506 | 79 | 82 | 0.0 | 4.0 | 0.00 | 0.00 | 0.00 | 85 | 1010.8 |
| 20260506152008 | 79 | 88 | 0.0 | 4.0 | 0.00 | 0.00 | 0.00 | 85 | 1010.7 |
| 20260506151523 | 79 | 87 | 0.0 | 2.0 | 0.00 | 0.00 | 0.00 | 85 | 1010.7 |
| 20260506151008 | 79 | 82 | 0.0 | 2.0 | 0.00 | 0.00 | 0.00 | 85 | 1010.5 |
| 20260506150505 | 79 | 63 | 0.0 | 2.0 | 0.00 | 0.00 | 0.00 | 85 | 1010.4 |
| 20260506150008 | 79 | 72 | 0.0 | 2.0 | 0.00 | 0.00 | 0.00 | 86 | 1010.3 |